Weather History for KCAR - July, 2013

Change the Weather History Date:

Wednesday, July 24, 2013

  Actual Average Record
Temperature  
Mean Temperature 64 °F 66 °F  
Max Temperature 77 °F 76 °F 92 °F (1941)
Min Temperature 51 °F 56 °F 45 °F (1964)
Degree Days  
Heating Degree Days 1 2  
Month to date heating degree days 15 50  
Since 1 June heating degree days 193 215  
Since 1 July heating degree days 15 50  
Cooling Degree Days 0 3  
Month to date cooling degree days 118 58  
Year to date cooling degree days 149 97  
Since 1 June cooling degree days 141 92  
Growing Degree Days 16 (Base 50)    
Moisture  
Dew Point 60 °F    
Average Humidity 75    
Maximum Humidity 100    
Minimum Humidity 49    
Precipitation  
Precipitation 0.08 in 0.13 in 1.71 in (1976)
Month to date precipitation 5.75 3.21  
Year to date precipitation 25.83 20.11  
Snow  
Snow 0.00 in 0.00 in 0.00 in (2002)
Month to date snowfall 0.0 0.0  
Since 1 June snowfall 0.0 0.0  
Since 1 July snowfall 0.0 0.0  
Snow Depth 0.00 in    
Sea Level Pressure  
Sea Level Pressure 29.63 in    
Wind  
Wind Speed 7 mph (SSW)    
Max Wind Speed 17 mph    
Max Gust Speed 25 mph    
Visibility 9 miles    
Events Rain    
T = Trace of Precipitation, MM = Missing Value Source: NWS Daily Summary

Daily Weather History Graph

Daily Weather History Graph

Search for Another Location

Airport or City:

Trip Planner

Search our weather history database for the weather conditions in past years. The results will help you decide how hot, cold, wet, or windy it might be!

Date:

Astronomy

Jul. 24, 2013 Rise Set
Actual Time 5:02 AM EDT 8:13 PM EDT
Civil Twilight 4:26 AM EDT 8:50 PM EDT
Nautical Twilight 3:38 AM EDT 9:37 PM EDT
Astronomical Twilight 2:39 AM EDT 10:36 PM EDT
Moon 9:02 PM EDT (7/24) 7:30 AM EDT (7/24)
Length of Visible Light 16h 24m
Length of Day
15h 11m
Waning Gibbous, 95% of the Moon is Illuminated
Jul 24
Waning Gibbous
Jul 29
Last Quarter
Aug 6
New
Aug 14
First Quarter
Aug 20
Full

Hourly Weather History & Observations

Time (EDT) Temp. Dew Point Humidity Pressure Visibility Wind Dir Wind Speed Gust Speed Precip Events Conditions
12:54 AM 61.0 °F 60.1 °F 97% 29.54 in 10.0 mi Calm Calm - N/A   Overcast
1:54 AM 61.0 °F 60.1 °F 97% 29.54 in 10.0 mi Calm Calm - N/A   Overcast
2:54 AM 61.0 °F 60.1 °F 97% 29.55 in 9.0 mi WSW 3.5 mph - N/A   Overcast
3:18 AM 60.8 °F 60.8 °F 100% 29.54 in 10.0 mi WSW 3.5 mph - N/A   Overcast
3:33 AM 60.8 °F 60.8 °F 100% 29.53 in 10.0 mi Calm Calm - N/A   Overcast
3:54 AM 61.0 °F 60.1 °F 97% 29.54 in 10.0 mi Calm Calm - N/A   Overcast
4:27 AM 60.8 °F 59.0 °F 94% 29.53 in 6.0 mi SSE 3.5 mph - N/A   Overcast
4:54 AM 61.0 °F 60.1 °F 97% 29.54 in 9.0 mi South 3.5 mph - N/A   Overcast
5:19 AM 60.8 °F 60.8 °F 100% 29.53 in 9.0 mi South 3.5 mph - N/A   Overcast
5:27 AM 60.8 °F 60.8 °F 100% 29.53 in 10.0 mi South 4.6 mph - N/A   Overcast
5:54 AM 61.0 °F 60.1 °F 97% 29.54 in 10.0 mi South 5.8 mph - N/A   Overcast
6:02 AM 60.8 °F 60.8 °F 100% 29.53 in 10.0 mi SSE 4.6 mph - N/A   Overcast
6:11 AM 60.8 °F 60.8 °F 100% 29.53 in 10.0 mi South 5.8 mph - N/A   Overcast
6:35 AM 62.6 °F 60.8 °F 94% 29.52 in 10.0 mi SSE 4.6 mph - N/A   Overcast
6:54 AM 62.1 °F 61.0 °F 96% 29.53 in 10.0 mi SSE 6.9 mph - N/A   Overcast
7:09 AM 62.6 °F 60.8 °F 94% 29.53 in 10.0 mi SSE 5.8 mph - N/A   Overcast
7:52 AM 64.4 °F 62.6 °F 94% 29.55 in 10.0 mi South 8.1 mph - N/A   Overcast
7:54 AM 64.0 °F 62.1 °F 93% 29.56 in 10.0 mi South 6.9 mph - N/A   Overcast
8:54 AM 64.9 °F 63.0 °F 93% 29.58 in 10.0 mi Variable 4.6 mph - N/A   Overcast
9:54 AM 64.9 °F 63.0 °F 93% 29.60 in 8.0 mi South 5.8 mph - 0.01 in Rain Light Rain
10:04 AM 64.4 °F 62.6 °F 94% 29.59 in 2.5 mi SSE 5.8 mph - 0.01 in Rain Heavy Rain
10:10 AM 64.4 °F 62.6 °F 94% 29.59 in 1.8 mi South 6.9 mph - 0.06 in Rain Light Rain
10:12 AM 64.4 °F 62.6 °F 94% 29.59 in 2.0 mi SSE 4.6 mph - 0.06 in Rain Light Rain
10:19 AM 64.4 °F 62.6 °F 94% 29.59 in 5.0 mi SSE 5.8 mph - 0.07 in Rain Light Rain
10:34 AM 66.2 °F 64.4 °F 94% 29.60 in 10.0 mi South 8.1 mph - 0.07 in   Overcast
10:54 AM 66.9 °F 64.9 °F 93% 29.60 in 10.0 mi SSE 6.9 mph - 0.07 in   Overcast
11:54 AM 70.0 °F 66.0 °F 87% 29.61 in 10.0 mi South 9.2 mph - N/A   Overcast
12:01 PM 69.8 °F 66.2 °F 88% 29.60 in 10.0 mi South 9.2 mph - N/A   Overcast
12:52 PM 71.6 °F 66.2 °F 83% 29.60 in 10.0 mi SSW 3.5 mph - N/A   Overcast
12:54 PM 72.0 °F 66.9 °F 84% 29.61 in 10.0 mi Calm Calm - N/A   Overcast
1:06 PM 73.4 °F 66.2 °F 78% 29.60 in 10.0 mi SSW 4.6 mph - N/A   Overcast
1:22 PM 75.2 °F 66.2 °F 73% 29.60 in 10.0 mi West 9.2 mph - N/A   Mostly Cloudy
1:54 PM 73.9 °F 63.0 °F 68% 29.62 in 10.0 mi WSW 12.7 mph 17.3 mph N/A   Mostly Cloudy
2:54 PM 73.9 °F 62.1 °F 66% 29.64 in 10.0 mi WSW 12.7 mph 17.3 mph N/A   Mostly Cloudy
3:54 PM 73.9 °F 60.1 °F 62% 29.65 in 10.0 mi West 11.5 mph 18.4 mph N/A   Overcast
4:54 PM 73.9 °F 55.9 °F 53% 29.68 in 10.0 mi West 9.2 mph 17.3 mph N/A   Partly Cloudy
5:54 PM 71.1 °F 52.0 °F 51% 29.73 in 10.0 mi WSW 12.7 mph 21.9 mph N/A   Clear
6:54 PM 66.0 °F 51.1 °F 59% 29.78 in 10.0 mi West 12.7 mph 18.4 mph N/A   Partly Cloudy
7:54 PM 62.1 °F 51.1 °F 67% 29.83 in 10.0 mi Variable 3.5 mph - N/A   Clear
8:54 PM 60.1 °F 52.0 °F 75% 29.87 in 10.0 mi NW 5.8 mph - N/A   Mostly Cloudy
9:54 PM 59.0 °F 51.1 °F 75% 29.91 in 10.0 mi North 5.8 mph - N/A   Overcast
10:54 PM 55.9 °F 48.9 °F 77% 29.94 in 10.0 mi North 5.8 mph - N/A   Clear
11:54 PM 53.1 °F 48.0 °F 83% 29.96 in 10.0 mi NNW 9.2 mph - N/A   Clear